Regional Weather Roundup
Issued by NWS Sioux Falls, SD

Home | Current Version | Previous Version | Text Only | Print | Product List | Glossary On
Versions: 1 2 3 4 5 6 7 8 9 10 11 12 13 14 15 16 17 18 19 20 21 22 23 24 25 26 27 28 29 30 31 32 33 34 35 36 37 38 39 40 41 42 43 44 45 46 47 48 49 50
000
ASUS43 KFSD 260702
RWRFSD

WEATHER ROUNDUP FOR SE SOUTH DAKOTA/SW MINNESOTA/NW IOWA
NATIONAL WEATHER SERVICE SIOUX FALLS SD
200 AM CDT SAT JUL 26 2014

NOTE: "FAIR" INDICATES FEW OR NO CLOUDS BELOW 12,000 FEET WITH NO
SIGNIFICANT WEATHER AND OR OBSTRUCTIONS TO VISIBILITY.


SDZ038>040-050-052>070-260800-
SOUTHEAST SOUTH DAKOTA

CITY           SKY/WX    TMP DP  RH WIND       PRES   REMARKS
CHAMBERLAIN    CLOUDY    69  66  90 E3        29.86R
HURON          MOCLDY    68  65  90 NE8       29.83F
MADISON        FAIR      66  66 100 NE7       29.86F
MITCHELL       PTCLDY    69  67  93 E5        29.84F
SIOUX FALLS    MOCLDY    70  68  93 N5        29.86S
WINNER         FAIR      71  66  84 E12       29.82F
YANKTON        PTCLDY    72  70  94 N5        29.84S
$$

MNZ071-072-080-081-089-090-097-098-260800-
SOUTHWEST MINNESOTA

CITY           SKY/WX    TMP DP  RH WIND       PRES   REMARKS
FAIRMONT       PTCLDY    70  64  83 S3        29.82F
JACKSON        MOCLDY    70  66  88 W6        29.85S FOG
LUVERNE        MOCLDY    72  68  88 CALM      29.87S FOG
MARSHALL       CLEAR     66  64  94 NW8       29.86S
MONTEVIDEO     CLEAR     66  66 100 CALM      29.85S FOG
PIPESTONE      CLOUDY    72  68  88 NE5       29.89R
REDWOOD FALLS  PTCLDY    72  70  93 NW7       29.83R
TRACY          PTCLDY    70  68  95 NW6       29.87R FOG
WINDOM         MOCLDY    72  70  94 W3        29.85R FOG
WORTHINGTON    CLOUDY    73  72  94 NW7       29.88R
$$

IAZ001>003-012>014-020>022-031-032-NEZ013-014-SDZ071-260800-
NORTHWEST IOWA

CITY           SKY/WX    TMP DP  RH WIND       PRES   REMARKS
CHEROKEE       MOCLDY    70  70 100 CALM      29.83S FOG
DENISON        CLOUDY    72  72 100 NE3       29.81F
ESTHERVILLE    MOCLDY    67  67 100 S5        29.82F FOG
LE MARS        PTCLDY    70  68  94 CALM      29.84S
ORANGE CITY    PTCLDY    72  68  88 CALM      29.86R FOG
SHELDON        MOCLDY    68  68 100 CALM      29.85R FOG
SIOUX CITY     PTCLDY    71  69  93 CALM      29.82F FOG
SPENCER        MOCLDY    68  66  93 CALM      29.83F FOG
STORM LAKE     PTCLDY    70  70 100 SE3       29.86R FOG
$$

ABBREVIATIONS USED IN REMARKS
   TC - TEMPERATURE IN CELSIUS
  WCI - WIND CHILL INDEX
   HX - HEAT INDEX
  VSB - VISIBILITY




USA.gov is the U.S. government's official web portal to all federal, state and local government web resources and services.